STARLINK-4333 (53088 NORAD) Tracking and Keplerian Element Data

This shows tracking and keplerian element data for the satellite.

Feedback or suggestion? Click here.




ElementValue
Catalog53088
NameSTARLINK-4333
Epoch Orbit1189
Epoch Day269.78338289
Epoch Year2022
RAAN89.6382
Inclination97.6582
Eccentricity0.0002008
Argument of Perigee39.1069
Mean Anonmoly321.03
Mean Motion15.01261465
Decay Rate-2.38E-06
L11 53088U 22077AX 22269.78338289 -.00000238 00000+0 -13894-4 0 9994
L22 53088 97.6582 89.6382 0002008 39.1069 321.0300 15.01261465 11896

Live tracking and technical data element details for STARLINK-4333 (NORAD 53088). STARLINK-4333 can be tracked NOW for your location showing map with azimuth and elevation plus other details from your city location.

Track the satellite on the map from your city or location and see movement details for azimuth, elevation, latitude, longitude, range, height, and movement on the map or in text.







IsCatalogInMostPopularTable: catalog: 53088, numindb: 4
Update: records affected: 1



GetName: 53088 STARLINK-4333

Hit Count: updated at: Wed, 05 Oct 2022 07:45:58 GMT